Tracking 29088 objects as of 13-Jul-2024
HD Live streaming from Space Station
objects crossing your sky now

STARLINK-6322

Track STARLINK-6322 now!
10-day predictions
STARLINK-6322 is classified as:


NORAD ID: 57337
Int'l Code: 2023-099K
Perigee: 565.1 km
Apogee: 567.4 km
Inclination: 43.0 °
Period: 95.8 minutes
Semi major axis: 6937 km
RCS: Unknown
Launch date: July 16, 2023
Source: United States (US)
Launch site: AIR FORCE EASTERN TEST RANGE (AFETR)
Your satellite tracking list
Your tracking list is empty




NASA's NSSDC Master Catalog

Two Line Element Set (TLE):
1 57337U 23099K   24194.59795438  .00000559  00000-0  56463-4 0  9995
2 57337  43.0045 296.9979 0001663 270.5432  89.5220 15.02533398 55839
Source of the keplerian elements: AFSPC